When you browse on this site, cookies collect data to enhance your experience and personalize the content and advertising you see.
Visit our Privacy Policy to learn more. By continuing to use the site, you agree to this use of cookies and data.
  • En Estados Unidos
  • Lista de países
  • Para 7 días
  • Temperatura del agua
  • Mapa Satelital
  • El tiempo en el mapa
  • Informadores
  • user-avatar
    Iniciar sesión

    Tiempo cada hora Sidi Bu-l-Abbas

    Hoy, 17 Febrero, Domingo

    Tiempo Temperatura Precipitaciones Viento Presión Humedad
    00:00 +12°C° 0 mm 3 mps 724 mmHg 22%
    01:00 +12°C° 0 mm 3 mps 724 mmHg 22%
    02:00 +12°C° 0 mm 3 mps 724 mmHg 21%
    03:00 +11°C° 0 mm 4 mps 724 mmHg 20%
    04:00 +11°C° 0 mm 4 mps 724 mmHg 21%
    05:00 +11°C° 0 mm 4 mps 724 mmHg 22%
    06:00 +10°C° 0 mm 5 mps 724 mmHg 21%
    07:00 +11°C° 0 mm 6 mps 724 mmHg 22%
    08:00 +11°C° 0 mm 6 mps 724 mmHg 23%
    09:00 +12°C° 0 mm 7 mps 725 mmHg 25%
    10:00 +15°C° 0 mm 7 mps 725 mmHg 23%
    11:00 +16°C° 0 mm 7 mps 725 mmHg 21%
    12:00 +17°C° 0 mm 7 mps 725 mmHg 19%
    13:00 +19°C° 0 mm 6 mps 724 mmHg 19%
    14:00 +19°C° 0 mm 5 mps 724 mmHg 18%
    15:00 +19°C° 0 mm 4 mps 723 mmHg 18%
    16:00 +17°C° 0 mm 3 mps 723 mmHg 22%
    17:00 +16°C° 0 mm 3 mps 723 mmHg 26%
    18:00 +14°C° 0 mm 2 mps 722 mmHg 30%
    19:00 +12°C° 0 mm 3 mps 722 mmHg 30%
    20:00 +12°C° 0 mm 3 mps 723 mmHg 30%
    21:00 +11°C° 0 mm 4 mps 723 mmHg 30%
    22:00 +11°C° 0 mm 4 mps 723 mmHg 32%
    23:00 +10°C° 0 mm 4 mps 723 mmHg 34%

    Mañana, 18 Febrero, Lunes

    Tiempo Temperatura Precipitaciones Viento Presión Humedad
    00:00 +10°C° 0 mm 4 mps 722 mmHg 36%
    01:00 +8°C° 0 mm 4 mps 722 mmHg 38%
    02:00 +8°C° 0 mm 4 mps 722 mmHg 41%
    03:00 +7°C° 0 mm 4 mps 722 mmHg 43%
    04:00 +7°C° 0 mm 4 mps 721 mmHg 45%
    05:00 +7°C° 0 mm 4 mps 721 mmHg 46%
    06:00 +6°C° 0 mm 4 mps 721 mmHg 48%
    07:00 +8°C° 0 mm 4 mps 721 mmHg 45%
    08:00 +10°C° 0 mm 4 mps 721 mmHg 43%
    09:00 +12°C° 0 mm 4 mps 722 mmHg 41%
    10:00 +14°C° 0 mm 4 mps 721 mmHg 35%
    11:00 +17°C° 0 mm 4 mps 721 mmHg 30%
    12:00 +19°C° 0 mm 4 mps 721 mmHg 25%
    13:00 +19°C° 0 mm 4 mps 720 mmHg 24%
    14:00 +19°C° 0 mm 3 mps 720 mmHg 24%
    15:00 +20°C° 0 mm 3 mps 719 mmHg 23%
    16:00 +18°C° 0 mm 2 mps 719 mmHg 29%
    17:00 +16°C° 0 mm 1 mps 719 mmHg 35%
    18:00 +14°C° 0 mm 1 mps 718 mmHg 42%
    19:00 +13°C° 0 mm 1 mps 719 mmHg 41%
    20:00 +13°C° 0 mm 2 mps 719 mmHg 40%
    21:00 +13°C° 0 mm 2 mps 719 mmHg 39%
    22:00 +12°C° 0 mm 3 mps 719 mmHg 36%
    23:00 +11°C° 0 mm 3 mps 719 mmHg 33%

    Pasado mañana, 19 Febrero, Martes

    Tiempo Temperatura Precipitaciones Viento Presión Humedad
    00:00 +11°C° 0 mm 4 mps 719 mmHg 30%
    01:00 +11°C° 0 mm 4 mps 719 mmHg 31%
    02:00 +11°C° 0 mm 3 mps 719 mmHg 32%
    03:00 +10°C° 0 mm 3 mps 719 mmHg 34%
    04:00 +10°C° 0 mm 2 mps 719 mmHg 38%
    05:00 +10°C° 0 mm 2 mps 719 mmHg 42%
    06:00 +9°C° 0 mm 2 mps 719 mmHg 46%
    07:00 +11°C° 0 mm 1 mps 720 mmHg 46%
    08:00 +12°C° 0 mm 1 mps 720 mmHg 47%
    09:00 +13°C° 0 mm 1 mps 721 mmHg 48%
    10:00 +14°C° 0 mm 1 mps 721 mmHg 49%
    11:00 +15°C° 0 mm 1 mps 721 mmHg 49%
    12:00 +16°C° 0 mm 1 mps 721 mmHg 50%
    13:00 +16°C° 0.1 mm 2 mps 720 mmHg 48%
    14:00 +16°C° 0.1 mm 2 mps 720 mmHg 47%
    15:00 +17°C° 0.1 mm 3 mps 720 mmHg 46%
    16:00 +14°C° 0.2 mm 3 mps 720 mmHg 49%
    17:00 +13°C° 0.2 mm 3 mps 720 mmHg 52%
    18:00 +12°C° 0.2 mm 3 mps 720 mmHg 54%
    19:00 +12°C° 0 mm 2 mps 720 mmHg 59%
    20:00 +11°C° 0 mm 1 mps 721 mmHg 63%
    21:00 +10°C° 0 mm 1 mps 721 mmHg 67%
    22:00 +9°C° 0 mm 1 mps 721 mmHg 69%
    23:00 +9°C° 0 mm 1 mps 721 mmHg 70%

    20 Febrero, Miércoles

    Tiempo Temperatura Precipitaciones Viento Presión Humedad
    00:00 +9°C° 0 mm 1 mps 721 mmHg 71%
    01:00 +8°C° 0 mm 1 mps 721 mmHg 75%
    02:00 +8°C° 0 mm 1 mps 721 mmHg 79%
    03:00 +7°C° 0 mm 2 mps 721 mmHg 82%
    04:00 +6°C° 0 mm 2 mps 721 mmHg 86%
    05:00 +6°C° 0 mm 2 mps 721 mmHg 89%
    06:00 +6°C° 0 mm 2 mps 721 mmHg 93%
    07:00 +7°C° 0.1 mm 2 mps 722 mmHg 89%
    08:00 +9°C° 0.1 mm 2 mps 723 mmHg 86%
    09:00 +10°C° 0.1 mm 3 mps 723 mmHg 82%
    10:00 +11°C° 0.1 mm 3 mps 724 mmHg 77%
    11:00 +11°C° 0.1 mm 4 mps 724 mmHg 72%
    12:00 +12°C° 0.1 mm 4 mps 724 mmHg 67%
    13:00 +12°C° 0 mm 4 mps 724 mmHg 66%
    14:00 +12°C° 0 mm 5 mps 723 mmHg 66%
    15:00 +12°C° 0 mm 5 mps 723 mmHg 65%
    16:00 +11°C° 0 mm 4 mps 723 mmHg 70%
    17:00 +11°C° 0 mm 4 mps 723 mmHg 75%
    18:00 +10°C° 0 mm 3 mps 724 mmHg 79%
    19:00 +9°C° 0 mm 3 mps 724 mmHg 84%
    20:00 +8°C° 0 mm 2 mps 725 mmHg 89%
    21:00 +8°C° 0 mm 1 mps 725 mmHg 95%
    22:00 +8°C° 0 mm 1 mps 725 mmHg 95%
    23:00 +8°C° 0 mm 1 mps 725 mmHg 95%

    21 Febrero, Jueves

    Tiempo Temperatura Precipitaciones Viento Presión Humedad
    00:00 +8°C° 0 mm 1 mps 725 mmHg 96%
    01:00 +8°C° 0 mm 1 mps 725 mmHg 95%
    02:00 +8°C° 0 mm 1 mps 725 mmHg 94%
    03:00 +8°C° 0 mm 0 mps 725 mmHg 93%
    04:00 +7°C° 0 mm 0 mps 725 mmHg 93%
    05:00 +6°C° 0 mm 0 mps 725 mmHg 93%
    06:00 +6°C° 0 mm 0 mps 725 mmHg 94%
    07:00 +7°C° 0 mm 0 mps 726 mmHg 89%
    08:00 +8°C° 0 mm 0 mps 727 mmHg 85%
    09:00 +10°C° 0 mm 0 mps 727 mmHg 80%
    10:00 +11°C° 0 mm 1 mps 727 mmHg 75%
    11:00 +12°C° 0 mm 1 mps 727 mmHg 70%
    12:00 +13°C° 0 mm 2 mps 727 mmHg 65%
    13:00 +14°C° 0 mm 2 mps 727 mmHg 63%
    14:00 +14°C° 0 mm 3 mps 727 mmHg 60%
    15:00 +14°C° 0 mm 3 mps 727 mmHg 57%
    16:00 +13°C° 0 mm 3 mps 727 mmHg 62%
    17:00 +12°C° 0 mm 3 mps 727 mmHg 68%
    18:00 +11°C° 0 mm 3 mps 727 mmHg 74%
    19:00 +10°C° 0 mm 2 mps 728 mmHg 79%
    20:00 +9°C° 0 mm 2 mps 728 mmHg 85%
    21:00 +10°C° 0 mm 1 mps 728 mmHg 90%
    22:00 +9°C° 0 mm 1 mps 728 mmHg 91%
    23:00 +9°C° 0 mm 1 mps 728 mmHg 92%

    22 Febrero, Viernes

    Tiempo Temperatura Precipitaciones Viento Presión Humedad
    00:00 +8°C° 0 mm 1 mps 728 mmHg 92%
    01:00 +8°C° 0 mm 1 mps 728 mmHg 92%
    02:00 +7°C° 0 mm 0 mps 728 mmHg 91%
    03:00 +7°C° 0 mm 0 mps 728 mmHg 91%
    04:00 +6°C° 0 mm 0 mps 728 mmHg 90%
    05:00 +6°C° 0 mm 0 mps 728 mmHg 89%
    06:00 +7°C° 0 mm 1 mps 728 mmHg 88%
    07:00 +9°C° 0 mm 1 mps 728 mmHg 80%
    08:00 +11°C° 0 mm 1 mps 729 mmHg 71%
    09:00 +14°C° 0 mm 1 mps 729 mmHg 62%
    10:00 +15°C° 0 mm 1 mps 729 mmHg 55%
    11:00 +16°C° 0 mm 1 mps 729 mmHg 49%
    12:00 +19°C° 0 mm 1 mps 729 mmHg 43%
    13:00 +18°C° 0 mm 2 mps 728 mmHg 42%
    14:00 +19°C° 0 mm 2 mps 728 mmHg 42%
    15:00 +19°C° 0 mm 3 mps 727 mmHg 42%
    16:00 +17°C° 0 mm 2 mps 727 mmHg 50%
    17:00 +16°C° 0 mm 2 mps 727 mmHg 59%
    18:00 +14°C° 0 mm 2 mps 727 mmHg 67%
    19:00 +13°C° 0 mm 1 mps 727 mmHg 73%
    20:00 +12°C° 0 mm 1 mps 727 mmHg 78%
    21:00 +10°C° 0 mm 0 mps 727 mmHg 84%
    22:00 +9°C° 0 mm 0 mps 727 mmHg 84%
    23:00 +9°C° 0 mm 0 mps 726 mmHg 85%
    Mostrar más